Regional Weather Roundup
Issued by NWS Newport/Morehead, NC

Current Version | Previous Version | Text Only | Print | Product List | Glossary On
Versions: 1 2 3 4 5 6 7 8 9 10 11 12 13 14 15 16 17 18 19 20 21 22 23 24 25 26 27 28 29 30 31 32 33 34 35 36 37 38 39 40 41 42 43 44 45 46 47 48 49 50
000
ASUS42 KMHX 262224
RWRMHX
WEATHER ROUNDUP FOR EASTERN NORTH CAROLINA
NATIONAL WEATHER SERVICE NEWPORT/MOREHEAD CITY NC
600 PM EDT THU MAR 26 2015

NOTE: "FAIR" INDICATES FEW OR NO CLOUDS BELOW 12,000 FEET
WITH NO SIGNIFICANT WEATHER AND/OR OBSTRUCTIONS TO VISIBILITY

NCZ015>017-031-032-045>047-102-103-262300-
NORTH COAST

CITY           SKY/WX    TMP DP  RH WIND       PRES   REMARKS
EDENTON        MOSUNNY   69  60  74 SW10      29.76F
ELIZABETH CITY MOSUNNY   70  60  70 SW18G24   29.76F
KITTY HAWK     PTCLDY    68  59  73 S9G18     29.76F
MANTEO         MOSUNNY   65  57  75 SW22      29.79R

$$

NCZ045>047-081-094-103-104-262300-
CENTRAL COAST

CITY           SKY/WX    TMP DP  RH WIND       PRES   REMARKS
FRISCO         MOSUNNY   67  58  72 SW15G25   29.84S
SWANQUARTER      N/A     66 N/A N/A S20G28    29.77S

$$

NCZ095-097-098-100-101-262300-
SOUTHERN COAST

CITY           SKY/WX    TMP DP  RH WIND       PRES   REMARKS
BEAUFORT       PTSUNNY   64  60  87 S17       29.84F
CEDAR ISLAND     N/A     70 N/A N/A S8G20     29.85S
JACKSONVILLE   CLOUDY    70  59  68 S12G21    29.83S
PINEY ISLAND   PTCLDY   N/A N/A N/A S21G31    29.83R
WILMINGTON     CLOUDY    70  59  68 S14G22    29.83F


$$

NCZ011>013-027>030-043-044-078>080-089-090>093-098-262300-
COASTAL PLAIN

CITY           SKY/WX    TMP DP  RH WIND       PRES   REMARKS
AHOSKIE        PTSUNNY   70  61  73 S7        29.74F
CLINTON        CLOUDY    74  59  59 SW8       29.81F
ELIZABETHTOWN  CLOUDY    75  56  51 SW7       29.82F
GOLDSBORO      MOSUNNY   73  69  86 SW10      29.77F
GREENVILLE     PTSUNNY   73  57  56 SW14      29.80F
HAVELOCK       PTSUNNY   69  58  67 SW15G25   29.84S
KENANSVILLE    CLOUDY    73  56  55 CALM      29.81F
KINSTON        CLOUDY    73  57  56 S12       29.80F
NEW BERN       PTSUNNY   73  56  54 S15       29.82S
RICHLANDS      CLOUDY    73  55  53 S15       29.81F
ROCKY MOUNT    PTSUNNY   73  57  57 S13       29.76F
WASHINGTON     MOSUNNY   72  56  57 SW16G22   29.78S
WHITEVILLE     CLOUDY    72  60  65 S6        29.82F

$$

AMZ130-135-150-152-154-156-158-170-250-252-270-ANZ085-086-088-633-658-670-262300-
MARINE OBSERVATIONS

STATION/POSITION TIME  TEMP    WIND        PRES    WAVE   SWELL
                       AIR SEA DIR/SP/G            HT/PER HT/PER
                 (UTC) (F)     (DEG/KT/KT) (MB)    (FT/S) (FT/S)
CHESAPEAKE LIGHT 2200   57     210/ 24/ 25 1006.8
64 E VA BEACH    2150   61 52  190/ 25/ 31 1007.3    9/ 9   5/ 9
DUCK             2200   65 42  190/ 11/ 14 1006.9
2 E DUCK         2211      42                N/A     6/ 9   2/11
10 NE DUCK       NOT AVBL
OREGON INLET     2200   62 59  180/ 21/ 25 1008.9
HATTERAS CG      2200          210/ 12/ 17 1010.8
CAPE LOOKOUT     2200   65     200/ 13/ 16 1010.7
BEAUFORT LAB     2200          200/ 16/ 21 1009.4
27 SE WRIGHTSVLE 2200   63 64  250/ 14/ 17 1013.2
5 SE WRIGHTSVLE  2200   60 56  210/ 10/ 12 1010.5
225 S CAPE HAT   2150   70 69  180/ 17/ 21 1015.9    7/ 7   2/12
41 SE CHARLESTON 2150   69 71  200/ 12/ 14 1011.3    5/ 8   3/ 8

$$



USA.gov is the U.S. government's official web portal to all federal, state and local government web resources and services.